| time (UTC) | temp F | wind direction | speed MPH | gust MPH | rain 1hr in | rain 24hr in | rain mn in | humidity % | barometer mb |
| 20260510200058 | 58 | 0 | 0.0 | 1.0 | 0.02 | 0.67 | 0.51 | 95 | 1020.9 |
| 20260510194556 | 58 | 0 | 0.0 | 1.0 | 0.03 | 0.66 | 0.50 | 95 | 1021.3 |
| 20260510193107 | 58 | 0 | 0.0 | 1.0 | 0.05 | 0.65 | 0.49 | 95 | 1022.3 |
| 20260510191559 | 57 | 282 | 0.0 | 1.0 | 0.07 | 0.65 | 0.49 | 95 | 1022.0 |
| 20260510190053 | 57 | 259 | 0.0 | 1.0 | 0.10 | 0.65 | 0.49 | 95 | 1021.5 |
| 20260510184552 | 56 | 61 | 0.0 | 2.0 | 0.08 | 0.62 | 0.46 | 95 | 1020.7 |
| 20260510183057 | 57 | 0 | 0.0 | 1.0 | 0.07 | 0.60 | 0.44 | 95 | 1021.2 |
| 20260510181552 | 57 | 0 | 0.0 | 1.0 | 0.06 | 0.58 | 0.42 | 95 | 1021.8 |
| 20260510180103 | 57 | 0 | 0.0 | 2.0 | 0.05 | 0.55 | 0.39 | 94 | 1022.0 |
| 20260510174554 | 57 | 0 | 0.0 | 2.0 | 0.04 | 0.54 | 0.38 | 94 | 1021.5 |
| 20260510173054 | 58 | 44 | 0.0 | 3.0 | 0.04 | 0.52 | 0.37 | 95 | 1020.9 |
| 20260510171552 | 58 | 269 | 0.0 | 2.0 | 0.05 | 0.52 | 0.36 | 95 | 1021.0 |
| 20260510170055 | 58 | 254 | 0.0 | 3.0 | 0.04 | 0.50 | 0.34 | 95 | 1020.6 |
| 20260510164556 | 58 | 0 | 0.0 | 4.0 | 0.08 | 0.50 | 0.34 | 95 | 1020.5 |
| 20260510163058 | 58 | 44 | 0.0 | 3.0 | 0.08 | 0.49 | 0.33 | 95 | 1019.7 |
| 20260510161554 | 58 | 351 | 0.0 | 4.0 | 0.06 | 0.47 | 0.31 | 95 | 1021.0 |
| 20260510160054 | 58 | 223 | 0.0 | 4.0 | 0.04 | 0.45 | 0.29 | 94 | 1020.8 |
| 20260510154559 | 59 | 0 | 0.0 | 2.0 | 0.01 | 0.42 | 0.26 | 95 | 1020.6 |
| 20260510153055 | 60 | 250 | 0.0 | 1.0 | 0.00 | 0.41 | 0.25 | 95 | 1020.3 |
| 20260510151611 | 60 | 196 | 0.0 | 0.0 | 0.00 | 0.41 | 0.25 | 95 | 1019.1 |
| 20260510144605 | 60 | 0 | 0.0 | 1.0 | 0.01 | 0.41 | 0.25 | 95 | 1017.5 |
| 20260510143100 | 60 | 0 | 0.0 | 0.0 | 0.01 | 0.41 | 0.25 | 95 | 1017.6 |
| 20260510141551 | 60 | 0 | 0.0 | 0.0 | 0.02 | 0.41 | 0.25 | 95 | 1017.0 |
| 20260510140053 | 59 | 0 | 0.0 | 0.0 | 0.02 | 0.41 | 0.25 | 95 | 1016.4 |
| 20260510134554 | 59 | 0 | 0.0 | 2.0 | 0.03 | 0.40 | 0.24 | 95 | 1017.2 |
| 20260510133053 | 59 | 0 | 0.0 | 1.0 | 0.06 | 0.40 | 0.24 | 95 | 1018.1 |
| 20260510131555 | 59 | 0 | 0.0 | 1.0 | 0.06 | 0.39 | 0.23 | 95 | 1017.6 |
| 20260510130110 | 59 | 0 | 0.0 | 1.0 | 0.12 | 0.39 | 0.23 | 95 | 1017.8 |
| 20260510124600 | 59 | 235 | 0.0 | 1.0 | 0.16 | 0.37 | 0.21 | 95 | 1018.0 |
| 20260510123055 | 59 | 0 | 0.0 | 2.0 | 0.16 | 0.34 | 0.18 | 95 | 1017.7 |
| 20260510121555 | 59 | 0 | 0.0 | 2.0 | 0.14 | 0.32 | 0.16 | 95 | 1018.0 |
| 20260510114554 | 58 | 240 | 0.0 | 4.0 | 0.04 | 0.21 | 0.05 | 94 | 1017.9 |
| 20260510113059 | 59 | 27 | 1.0 | 3.0 | 0.02 | 0.18 | 0.02 | 95 | 1017.1 |
| 20260510111548 | 59 | 0 | 0.0 | 1.0 | 0.02 | 0.18 | 0.02 | 95 | 1015.8 |
| 20260510110055 | 59 | 0 | 0.0 | 1.0 | 0.01 | 0.17 | 0.01 | 95 | 1014.2 |
| 20260510104554 | 59 | 0 | 0.0 | 0.0 | 0.01 | 0.17 | 0.01 | 95 | 1013.3 |
| 20260510103056 | 59 | 0 | 0.0 | 1.0 | 0.00 | 0.16 | 0.00 | 95 | 1013.2 |
| 20260510101603 | 59 | 0 | 0.0 | 0.0 | 0.00 | 0.16 | 0.00 | 95 | 1013.4 |
| 20260510100059 | 59 | 0 | 0.0 | 2.0 | 0.00 | 0.16 | 0.00 | 95 | 1012.5 |
| 20260510094553 | 58 | 0 | 0.0 | 0.0 | 0.00 | 0.16 | 0.00 | 94 | 1012.0 |
| 20260510093054 | 58 | 0 | 0.0 | 0.0 | 0.00 | 0.16 | 0.00 | 94 | 1012.1 |
| 20260510091554 | 58 | 0 | 0.0 | 0.0 | 0.00 | 0.16 | 0.00 | 94 | 1012.2 |
| 20260510090052 | 59 | 0 | 0.0 | 0.0 | 0.00 | 0.16 | 0.00 | 94 | 1012.3 |
| 20260510084551 | 59 | 0 | 0.0 | 0.0 | 0.00 | 0.16 | 0.00 | 94 | 1012.6 |
| 20260510083051 | 59 | 132 | 0.0 | 0.0 | 0.00 | 0.16 | 0.00 | 94 | 1012.5 |
| 20260510081551 | 59 | 0 | 0.0 | 1.0 | 0.00 | 0.16 | 0.00 | 94 | 1012.7 |
| 20260510074553 | 58 | 0 | 0.0 | 1.0 | 0.00 | 0.16 | 0.00 | 94 | 1012.3 |
| 20260510073114 | 58 | 142 | 0.0 | 2.0 | 0.00 | 0.16 | 0.00 | 94 | 1012.2 |
| 20260510071555 | 59 | 78 | 0.0 | 2.0 | 0.00 | 0.16 | 0.00 | 94 | 1012.3 |
| 20260510064621 | 59 | 109 | 0.0 | 1.0 | 0.00 | 0.16 | 0.00 | 94 | 1014.0 |
| 20260510063100 | 59 | 0 | 0.0 | 2.0 | 0.00 | 0.16 | 0.00 | 93 | 1014.4 |
| 20260510061553 | 59 | 131 | 0.0 | 1.0 | 0.00 | 0.16 | 0.00 | 93 | 1015.0 |
| 20260510060053 | 59 | 48 | 1.0 | 3.0 | 0.00 | 0.16 | 0.00 | 93 | 1014.4 |
| 20260510054604 | 59 | 18 | 0.0 | 4.0 | 0.02 | 0.16 | 0.00 | 92 | 1014.2 |
| 20260510053055 | 60 | 235 | 0.0 | 5.0 | 0.06 | 0.16 | 0.00 | 92 | 1014.1 |
| 20260510051601 | 61 | 223 | 0.0 | 3.0 | 0.15 | 0.16 | 0.00 | 91 | 1013.9 |
| 20260510050055 | 61 | 234 | 0.0 | 6.0 | 0.16 | 0.16 | 0.00 | 90 | 1014.3 |
| 20260510044556 | 62 | 46 | 1.0 | 3.0 | 0.14 | 0.15 | 0.14 | 88 | 1013.7 |
| 20260510043057 | 64 | 0 | 1.0 | 11.0 | 0.09 | 0.10 | 0.09 | 82 | 1016.0 |
| 20260510041554 | 66 | 11 | 0.0 | 2.0 | 0.01 | 0.02 | 0.01 | 74 | 1014.7 |
| 20260510040057 | 70 | 44 | 0.0 | 1.0 | 0.00 | 0.01 | 0.00 | 66 | 1013.1 |
| 20260510034614 | 71 | 217 | 0.0 | 1.0 | 0.00 | 0.01 | 0.00 | 58 | 1012.5 |
| 20260510033057 | 71 | 188 | 0.0 | 5.0 | 0.00 | 0.01 | 0.00 | 59 | 1010.7 |
| 20260510031554 | 70 | 40 | 2.0 | 5.0 | 0.00 | 0.01 | 0.00 | 61 | 1009.8 |
| 20260510030054 | 71 | 45 | 0.0 | 2.0 | 0.00 | 0.01 | 0.00 | 61 | 1010.4 |
| 20260510024558 | 70 | 61 | 0.0 | 2.0 | 0.00 | 0.01 | 0.00 | 62 | 1010.2 |
| 20260510023053 | 69 | 0 | 0.0 | 0.0 | 0.00 | 0.01 | 0.00 | 63 | 1010.3 |
| 20260510021602 | 69 | 0 | 0.0 | 1.0 | 0.00 | 0.01 | 0.00 | 63 | 1009.6 |
| 20260510020056 | 71 | 0 | 0.0 | 0.0 | 0.00 | 0.01 | 0.00 | 60 | 1009.3 |
| 20260510014600 | 71 | 0 | 0.0 | 1.0 | 0.00 | 0.01 | 0.00 | 58 | 1008.2 |
| 20260510013135 | 72 | 0 | 0.0 | 0.0 | 0.00 | 0.01 | 0.00 | 59 | 1008.1 |
| 20260510011559 | 73 | 0 | 0.0 | 0.0 | 0.00 | 0.01 | 0.00 | 56 | 1008.2 |
| 20260510010054 | 74 | 0 | 0.0 | 0.0 | 0.00 | 0.01 | 0.00 | 54 | 1008.1 |
| 20260510004554 | 76 | 0 | 0.0 | 0.0 | 0.00 | 0.01 | 0.00 | 51 | 1008.1 |
| 20260510003104 | 77 | 0 | 0.0 | 1.0 | 0.00 | 0.01 | 0.00 | 49 | 1008.1 |
| 20260510001554 | 79 | 61 | 0.0 | 3.0 | 0.00 | 0.01 | 0.00 | 45 | 1008.2 |
| 20260510000116 | 81 | 61 | 1.0 | 5.0 | 0.00 | 0.01 | 0.00 | 43 | 1008.2 |
| 20260509234551 | 82 | 55 | 1.0 | 4.0 | 0.00 | 0.05 | 0.00 | 41 | 1008.3 |
| 20260509233052 | 83 | 78 | 1.0 | 5.0 | 0.00 | 0.05 | 0.00 | 39 | 1008.2 |
| 20260509231556 | 83 | 128 | 1.0 | 8.0 | 0.00 | 0.05 | 0.00 | 38 | 1008.3 |
| 20260509230058 | 83 | 223 | 1.0 | 4.0 | 0.00 | 0.05 | 0.00 | 36 | 1008.5 |
| 20260509224552 | 84 | 132 | 1.0 | 4.0 | 0.00 | 0.05 | 0.00 | 35 | 1008.7 |
| 20260509223105 | 84 | 15 | 2.0 | 0.0 | 0.00 | 0.05 | 0.00 | 36 | 1008.9 |
| 20260509221600 | 84 | 0 | 0.0 | 4.0 | 0.00 | 0.05 | 0.00 | 36 | 1009.0 |
| 20260509220052 | 84 | 44 | 1.0 | 5.0 | 0.00 | 0.05 | 0.00 | 40 | 1009.2 |
| 20260509214601 | 85 | 105 | 0.0 | 4.0 | 0.00 | 0.05 | 0.00 | 39 | 1009.0 |
| 20260509213055 | 85 | 84 | 0.0 | 5.0 | 0.00 | 0.05 | 0.00 | 37 | 1009.2 |
| 20260509211551 | 86 | 0 | 1.0 | 5.0 | 0.00 | 0.05 | 0.00 | 37 | 1009.3 |
| 20260509210056 | 85 | 0 | 0.0 | 7.0 | 0.00 | 0.05 | 0.00 | 38 | 1009.5 |
| 20260509204553 | 86 | 207 | 1.0 | 3.0 | 0.00 | 0.05 | 0.00 | 37 | 1009.6 |
| 20260509203055 | 86 | 0 | 1.0 | 4.0 | 0.00 | 0.05 | 0.00 | 35 | 1009.8 |
| 20260509201553 | 87 | 0.0 | 0.0 | 0.00 | 0.05 | 0.00 | 36 | 1009.9 |